Location: Campillo
(40.8621°N, 4.2488°W)
Time: 14:05:24
(UTC+00:00)

USA 308 - Pass Details

Date: 20 September 2021
Orbit: 566 x 573 km, 54.0° (Epoch: 23 September)

Event Time Altitude Azimuth Distance (km) Brightness Sun altitude
Rises 19:14:40 0° 284° (WNW) 2,764 8.6 -11.6°
Reaches altitude 10° 19:17:37 10° 305° (NW) 1,870 6.7 -12.1°
Maximum altitude 19:20:23 17° 346° (NNW) 1,491 5.3 -12.7°
Drops below altitude 10° 19:23:10 10° 27° (NNE) 1,875 5.4 -13.2°
Enters shadow 19:25:13 - 44° (NE) 2,470 5.8 -13.5°
